| time (UTC) | temp F | wind direction | speed MPH | gust MPH | rain 1hr in | rain 24hr in | rain mn in | humidity % | barometer mb |
| 20260905050204 | 63 | 360 | 0.0 | 0.0 | 0.00 | 0.00 | 0.00 | 90 | 1013.4 |
| 20260905045203 | 63 | 360 | 0.0 | 0.0 | 0.00 | 0.00 | 0.00 | 90 | 1013.3 |
| 20260905044203 | 64 | 360 | 0.0 | 0.0 | 0.00 | 0.00 | 0.00 | 90 | 1013.4 |
| 20260905043205 | 64 | 360 | 0.0 | 0.0 | 0.00 | 0.00 | 0.00 | 90 | 1013.5 |
| 20260905042204 | 64 | 360 | 0.0 | 0.0 | 0.00 | 0.00 | 0.00 | 89 | 1013.4 |
| 20260905041226 | 65 | 360 | 0.0 | 0.0 | 0.00 | 0.00 | 0.00 | 89 | 1013.4 |
| 20260905040203 | 65 | 360 | 0.0 | 0.0 | 0.00 | 0.00 | 0.00 | 89 | 1013.4 |
| 20260905035204 | 65 | 360 | 0.0 | 0.0 | 0.00 | 0.00 | 0.00 | 89 | 1013.4 |
| 20260905034205 | 65 | 360 | 0.0 | 0.0 | 0.00 | 0.00 | 0.00 | 88 | 1013.5 |
| 20260905033204 | 65 | 360 | 0.0 | 0.0 | 0.00 | 0.00 | 0.00 | 88 | 1013.4 |
| 20260905032203 | 66 | 360 | 0.0 | 0.0 | 0.00 | 0.00 | 0.00 | 88 | 1013.4 |
| 20260905031204 | 66 | 360 | 0.0 | 0.0 | 0.00 | 0.00 | 0.00 | 88 | 1013.2 |
| 20260905030204 | 66 | 360 | 0.0 | 0.0 | 0.00 | 0.00 | 0.00 | 87 | 1013.3 |
| 20260905025204 | 67 | 360 | 0.0 | 0.0 | 0.00 | 0.00 | 0.00 | 87 | 1013.3 |
| 20260905024205 | 67 | 360 | 0.0 | 0.0 | 0.00 | 0.00 | 0.00 | 87 | 1013.3 |
| 20260905023224 | 68 | 360 | 0.0 | 0.0 | 0.00 | 0.00 | 0.00 | 86 | 1013.4 |
| 20260905022205 | 68 | 360 | 0.0 | 0.0 | 0.00 | 0.00 | 0.00 | 86 | 1013.3 |
| 20260905021204 | 68 | 360 | 0.0 | 0.0 | 0.00 | 0.00 | 0.00 | 85 | 1013.3 |
| 20260905020204 | 69 | 360 | 0.0 | 0.0 | 0.00 | 0.00 | 0.00 | 85 | 1013.3 |
| 20260905015203 | 69 | 360 | 0.0 | 0.0 | 0.00 | 0.00 | 0.00 | 85 | 1013.3 |
| 20260905014225 | 69 | 360 | 0.0 | 0.0 | 0.00 | 0.00 | 0.00 | 85 | 1013.3 |
| 20260905013204 | 70 | 360 | 0.0 | 0.0 | 0.00 | 0.00 | 0.00 | 85 | 1013.4 |
| 20260905012203 | 70 | 360 | 0.0 | 0.0 | 0.00 | 0.00 | 0.00 | 85 | 1013.4 |
| 20260905011205 | 70 | 360 | 0.0 | 0.0 | 0.00 | 0.00 | 0.00 | 85 | 1013.5 |
| 20260905010205 | 70 | 360 | 0.0 | 0.0 | 0.00 | 0.00 | 0.00 | 84 | 1013.5 |
| 20260905005203 | 70 | 360 | 0.0 | 0.0 | 0.00 | 0.00 | 0.00 | 84 | 1013.4 |
| 20260905004204 | 70 | 360 | 0.0 | 0.0 | 0.00 | 0.00 | 0.00 | 84 | 1013.4 |
| 20260905003203 | 70 | 360 | 0.0 | 0.0 | 0.00 | 0.00 | 0.00 | 83 | 1013.3 |
| 20260905001226 | 71 | 360 | 0.0 | 0.0 | 0.00 | 0.02 | 0.00 | 83 | 1013.0 |
| 20260905000204 | 71 | 360 | 0.0 | 0.0 | 0.00 | 0.03 | 0.00 | 82 | 1012.9 |
| 20260904235203 | 72 | 360 | 0.0 | 0.0 | 0.00 | 0.05 | 0.00 | 80 | 1012.9 |
| 20260904234227 | 72 | 360 | 0.0 | 0.0 | 0.00 | 0.33 | 0.00 | 80 | 1012.9 |
| 20260904233205 | 72 | 360 | 0.0 | 0.0 | 0.00 | 0.45 | 0.00 | 78 | 1012.8 |
| 20260904232225 | 73 | 360 | 0.0 | 0.0 | 0.00 | 0.45 | 0.00 | 77 | 1012.9 |
| 20260904231203 | 73 | 360 | 0.0 | 0.0 | 0.00 | 0.45 | 0.00 | 77 | 1012.9 |
| 20260904230225 | 73 | 360 | 0.0 | 0.0 | 0.00 | 0.45 | 0.00 | 76 | 1012.8 |
| 20260904225224 | 74 | 360 | 0.0 | 0.0 | 0.00 | 0.45 | 0.00 | 76 | 1012.7 |
| 20260904224205 | 74 | 360 | 0.0 | 0.0 | 0.00 | 0.45 | 0.00 | 75 | 1012.5 |
| 20260904223226 | 74 | 360 | 0.0 | 0.0 | 0.00 | 0.45 | 0.00 | 75 | 1012.4 |
| 20260904222203 | 74 | 360 | 0.0 | 0.0 | 0.00 | 0.45 | 0.00 | 76 | 1012.3 |
| 20260904221226 | 74 | 360 | 0.0 | 2.0 | 0.00 | 0.45 | 0.00 | 76 | 1012.2 |
| 20260904220204 | 74 | 359 | 0.0 | 3.0 | 0.00 | 0.45 | 0.00 | 74 | 1012.1 |
| 20260904215203 | 74 | 360 | 0.0 | 1.0 | 0.00 | 0.45 | 0.00 | 75 | 1011.9 |
| 20260904214226 | 74 | 360 | 0.0 | 4.0 | 0.00 | 0.45 | 0.00 | 74 | 1011.8 |
| 20260904213204 | 74 | 360 | 0.0 | 0.0 | 0.00 | 0.45 | 0.00 | 74 | 1012.0 |
| 20260904212203 | 74 | 360 | 0.0 | 0.0 | 0.00 | 0.45 | 0.00 | 75 | 1012.0 |
| 20260904211203 | 74 | 360 | 0.0 | 0.0 | 0.00 | 0.45 | 0.00 | 74 | 1012.1 |
| 20260904210225 | 75 | 360 | 0.0 | 2.0 | 0.00 | 0.45 | 0.00 | 73 | 1012.3 |
| 20260904205204 | 75 | 359 | 0.0 | 4.0 | 0.00 | 0.45 | 0.00 | 74 | 1012.4 |
| 20260904204224 | 75 | 359 | 1.0 | 4.0 | 0.00 | 0.45 | 0.00 | 72 | 1012.5 |
| 20260904203225 | 75 | 359 | 1.0 | 6.0 | 0.00 | 0.45 | 0.00 | 72 | 1012.5 |
| 20260904202203 | 76 | 359 | 0.0 | 4.0 | 0.00 | 0.45 | 0.00 | 72 | 1012.6 |
| 20260904201205 | 76 | 356 | 2.0 | 5.0 | 0.00 | 0.45 | 0.00 | 71 | 1012.8 |
| 20260904200204 | 77 | 359 | 3.0 | 8.0 | 0.00 | 0.45 | 0.00 | 70 | 1012.7 |
| 20260904195224 | 77 | 359 | 1.0 | 4.0 | 0.00 | 0.45 | 0.00 | 71 | 1012.9 |
| 20260904194204 | 76 | 359 | 1.0 | 4.0 | 0.00 | 0.45 | 0.00 | 70 | 1012.9 |
| 20260904193205 | 77 | 357 | 2.0 | 6.0 | 0.00 | 0.45 | 0.00 | 71 | 1013.2 |
| 20260904192208 | 77 | 359 | 1.0 | 4.0 | 0.00 | 0.45 | 0.00 | 72 | 1013.2 |
| 20260904191204 | 76 | 359 | 1.0 | 5.0 | 0.00 | 0.45 | 0.00 | 73 | 1013.4 |
| 20260904190203 | 76 | 359 | 1.0 | 4.0 | 0.00 | 0.45 | 0.00 | 73 | 1013.5 |
| 20260904184203 | 75 | 357 | 2.0 | 5.0 | 0.00 | 0.45 | 0.00 | 74 | 1013.9 |
| 20260904183205 | 75 | 358 | 2.0 | 5.0 | 0.00 | 0.45 | 0.00 | 74 | 1014.0 |
| 20260904182204 | 76 | 359 | 2.0 | 5.0 | 0.00 | 0.45 | 0.00 | 73 | 1013.9 |
| 20260904181204 | 76 | 359 | 0.0 | 4.0 | 0.00 | 0.45 | 0.00 | 74 | 1013.9 |
| 20260904180224 | 76 | 359 | 2.0 | 8.0 | 0.00 | 0.45 | 0.00 | 72 | 1013.9 |
| 20260904175226 | 77 | 359 | 3.0 | 4.0 | 0.00 | 0.45 | 0.00 | 72 | 1013.9 |
| 20260904174205 | 77 | 359 | 2.0 | 6.0 | 0.00 | 0.45 | 0.00 | 73 | 1013.8 |
| 20260904173204 | 77 | 359 | 3.0 | 9.0 | 0.00 | 0.45 | 0.00 | 72 | 1014.0 |
| 20260904172228 | 76 | 356 | 3.0 | 6.0 | 0.00 | 0.45 | 0.00 | 73 | 1014.2 |
| 20260904171225 | 76 | 358 | 4.0 | 9.0 | 0.00 | 0.45 | 0.00 | 73 | 1014.3 |
| 20260904170205 | 76 | 359 | 0.0 | 5.0 | 0.00 | 0.45 | 0.00 | 69 | 1014.4 |
| 20260904165204 | 77 | 359 | 2.0 | 9.0 | 0.00 | 0.45 | 0.00 | 68 | 1014.5 |
| 20260904164204 | 77 | 359 | 2.0 | 10.0 | 0.00 | 0.45 | 0.00 | 71 | 1014.6 |
| 20260904163204 | 76 | 358 | 6.0 | 11.0 | 0.00 | 0.45 | 0.00 | 71 | 1014.8 |
| 20260904162226 | 76 | 359 | 3.0 | 6.0 | 0.00 | 0.45 | 0.00 | 75 | 1014.8 |
| 20260904161204 | 75 | 359 | 0.0 | 5.0 | 0.00 | 0.45 | 0.00 | 76 | 1014.9 |
| 20260904160225 | 74 | 359 | 0.0 | 4.0 | 0.00 | 0.45 | 0.00 | 77 | 1015.0 |
| 20260904155203 | 73 | 359 | 1.0 | 8.0 | 0.00 | 0.45 | 0.00 | 76 | 1014.9 |
| 20260904154204 | 73 | 359 | 3.0 | 6.0 | 0.00 | 0.45 | 0.00 | 78 | 1014.6 |
| 20260904153203 | 72 | 359 | 1.0 | 5.0 | 0.00 | 0.45 | 0.00 | 82 | 1014.5 |
| 20260904152204 | 70 | 359 | 0.0 | 6.0 | 0.00 | 0.45 | 0.00 | 86 | 1014.5 |
| 20260904151203 | 69 | 359 | 3.0 | 6.0 | 0.00 | 0.45 | 0.00 | 90 | 1014.4 |
| 20260904150204 | 69 | 359 | 0.0 | 6.0 | 0.00 | 0.45 | 0.00 | 92 | 1014.6 |
| 20260904145203 | 68 | 329 | 0.0 | 4.0 | 0.00 | 0.45 | 0.00 | 93 | 1014.7 |
| 20260904144203 | 68 | 359 | 0.0 | 3.0 | 0.00 | 0.45 | 0.00 | 93 | 1014.7 |
| 20260904143203 | 67 | 359 | 0.0 | 3.0 | 0.00 | 0.45 | 0.00 | 94 | 1014.4 |
| 20260904142203 | 67 | 359 | 2.0 | 4.0 | 0.00 | 0.45 | 0.00 | 94 | 1014.2 |
| 20260904141205 | 67 | 359 | 1.0 | 6.0 | 0.00 | 0.45 | 0.00 | 95 | 1014.2 |
| 20260904140205 | 67 | 360 | 0.0 | 0.0 | 0.00 | 0.45 | 0.00 | 95 | 1014.3 |
| 20260904135203 | 66 | 360 | 0.0 | 0.0 | 0.00 | 0.45 | 0.00 | 95 | 1014.5 |
| 20260904134204 | 66 | 360 | 0.0 | 2.0 | 0.00 | 0.45 | 0.00 | 95 | 1014.6 |
| 20260904133203 | 67 | 359 | 1.0 | 2.0 | 0.00 | 0.45 | 0.00 | 95 | 1014.6 |
| 20260904132227 | 66 | 360 | 0.0 | 2.0 | 0.00 | 0.45 | 0.00 | 95 | 1014.7 |
| 20260904131204 | 66 | 359 | 0.0 | 2.0 | 0.00 | 0.45 | 0.00 | 96 | 1014.8 |
| 20260904130224 | 66 | 359 | 0.0 | 2.0 | 0.00 | 0.45 | 0.00 | 96 | 1014.8 |
| 20260904125204 | 66 | 359 | 1.0 | 2.0 | 0.00 | 0.45 | 0.00 | 95 | 1014.7 |
| 20260904124204 | 66 | 360 | 0.0 | 1.0 | 0.00 | 0.45 | 0.00 | 96 | 1014.7 |
| 20260904123204 | 66 | 359 | 1.0 | 2.0 | 0.00 | 0.45 | 0.00 | 96 | 1014.8 |
| 20260904122226 | 66 | 359 | 0.0 | 1.0 | 0.00 | 0.45 | 0.00 | 96 | 1014.7 |
| 20260904121203 | 66 | 360 | 0.0 | 0.0 | 0.00 | 0.45 | 0.00 | 96 | 1014.5 |
| 20260904120203 | 65 | 360 | 0.0 | 0.0 | 0.00 | 0.45 | 0.00 | 96 | 1014.5 |
| 20260904115204 | 65 | 360 | 0.0 | 0.0 | 0.00 | 0.45 | 0.00 | 95 | 1014.5 |
| 20260904114203 | 65 | 360 | 0.0 | 0.0 | 0.00 | 0.45 | 0.00 | 95 | 1014.4 |
| 20260904113206 | 64 | 360 | 0.0 | 0.0 | 0.00 | 0.45 | 0.00 | 95 | 1014.3 |
| 20260904112204 | 64 | 360 | 0.0 | 0.0 | 0.00 | 0.45 | 0.00 | 95 | 1014.0 |
| 20260904111203 | 64 | 360 | 0.0 | 0.0 | 0.00 | 0.45 | 0.00 | 95 | 1014.0 |
| 20260904110205 | 64 | 360 | 0.0 | 0.0 | 0.00 | 0.45 | 0.00 | 95 | 1013.9 |
| 20260904105204 | 64 | 360 | 0.0 | 0.0 | 0.00 | 0.45 | 0.00 | 95 | 1014.0 |
| 20260904104203 | 65 | 360 | 0.0 | 0.0 | 0.00 | 0.45 | 0.00 | 95 | 1013.9 |
| 20260904103207 | 65 | 360 | 0.0 | 0.0 | 0.00 | 0.45 | 0.00 | 95 | 1013.9 |
| 20260904102204 | 65 | 360 | 0.0 | 0.0 | 0.00 | 0.45 | 0.00 | 95 | 1013.8 |
| 20260904101203 | 65 | 360 | 0.0 | 0.0 | 0.00 | 0.45 | 0.00 | 95 | 1014.0 |
| 20260904100205 | 65 | 360 | 0.0 | 0.0 | 0.00 | 0.45 | 0.00 | 95 | 1013.8 |
| 20260904095206 | 65 | 360 | 0.0 | 0.0 | 0.00 | 0.45 | 0.00 | 95 | 1013.6 |
| 20260904094206 | 65 | 360 | 0.0 | 0.0 | 0.00 | 0.45 | 0.00 | 95 | 1013.6 |
| 20260904093203 | 65 | 360 | 0.0 | 0.0 | 0.00 | 0.45 | 0.00 | 95 | 1013.5 |
| 20260904092204 | 65 | 360 | 0.0 | 0.0 | 0.00 | 0.45 | 0.00 | 95 | 1013.6 |
| 20260904091203 | 65 | 360 | 0.0 | 0.0 | 0.00 | 0.45 | 0.00 | 95 | 1013.6 |
| 20260904090204 | 66 | 360 | 0.0 | 0.0 | 0.00 | 0.45 | 0.00 | 95 | 1013.5 |
| 20260904085203 | 66 | 360 | 0.0 | 0.0 | 0.00 | 0.45 | 0.00 | 95 | 1013.4 |
| 20260904084226 | 66 | 360 | 0.0 | 0.0 | 0.00 | 0.45 | 0.00 | 95 | 1013.5 |
| 20260904083224 | 66 | 360 | 0.0 | 0.0 | 0.00 | 0.45 | 0.00 | 95 | 1013.5 |
| 20260904082204 | 66 | 360 | 0.0 | 2.0 | 0.00 | 0.45 | 0.00 | 95 | 1013.5 |
| 20260904081247 | 66 | 359 | 0.0 | 2.0 | 0.00 | 0.45 | 0.00 | 95 | 1013.4 |
| 20260904080203 | 66 | 360 | 0.0 | 0.0 | 0.00 | 0.45 | 0.00 | 95 | 1013.3 |
| 20260904075204 | 66 | 360 | 0.0 | 0.0 | 0.00 | 0.45 | 0.00 | 95 | 1013.2 |
| 20260904074203 | 66 | 360 | 0.0 | 0.0 | 0.00 | 0.45 | 0.00 | 95 | 1013.1 |
| 20260904073204 | 66 | 360 | 0.0 | 0.0 | 0.00 | 0.45 | 0.00 | 95 | 1012.9 |
| 20260904072203 | 66 | 360 | 0.0 | 0.0 | 0.00 | 0.45 | 0.00 | 95 | 1013.0 |
| 20260904071204 | 66 | 360 | 0.0 | 0.0 | 0.00 | 0.45 | 0.00 | 95 | 1012.9 |
| 20260904070203 | 66 | 360 | 0.0 | 0.0 | 0.00 | 0.45 | 0.00 | 95 | 1013.0 |
| 20260904065204 | 66 | 360 | 0.0 | 0.0 | 0.00 | 0.45 | 0.00 | 95 | 1012.9 |
| 20260904064204 | 66 | 360 | 0.0 | 0.0 | 0.00 | 0.45 | 0.00 | 95 | 1013.0 |
| 20260904063204 | 67 | 360 | 0.0 | 0.0 | 0.00 | 0.45 | 0.00 | 95 | 1012.9 |
| 20260904062205 | 67 | 360 | 0.0 | 0.0 | 0.00 | 0.45 | 0.00 | 95 | 1012.9 |
| 20260904061204 | 67 | 360 | 0.0 | 0.0 | 0.00 | 0.45 | 0.00 | 95 | 1012.8 |
| 20260904060206 | 68 | 360 | 0.0 | 0.0 | 0.00 | 0.45 | 0.00 | 95 | 1012.8 |
| 20260904055204 | 68 | 360 | 0.0 | 0.0 | 0.00 | 0.45 | 0.00 | 95 | 1012.8 |
| 20260904054203 | 69 | 360 | 0.0 | 0.0 | 0.00 | 0.45 | 0.00 | 95 | 1013.1 |
| 20260904053204 | 69 | 360 | 0.0 | 0.0 | 0.00 | 0.45 | 0.00 | 95 | 1013.1 |
| 20260904052226 | 69 | 360 | 0.0 | 0.0 | 0.00 | 0.45 | 0.00 | 95 | 1013.1 |
| 20260904051205 | 69 | 360 | 0.0 | 0.0 | 0.00 | 0.45 | 0.00 | 95 | 1013.3 |